Regional Weather Roundup
Issued by NWS

Home | Current Version | Previous Version | Graphics & Text | Print | Product List | Glossary On
Versions: 1 2 3 4 5 6 7 8 9 10 11 12 13 14 15 16 17 18 19 20 21 22 23 24 25 26 27 28 29 30 31 32 33 34 35 36 37 38 39 40 41 42 43 44 45 46 47 48 49 50
000
ASUS44 KMEG 231810
RWRTN
TENNESSEE HOURLY STATE WEATHER ROUNDUP
NATIONAL WEATHER SERVICE MEMPHIS TN
100 PM CDT SAT MAY 23 2015

TNZ002-004-019-021-049-052-054-088>092-231900-
WEST TENNESSEE

CITY           SKY/WX    TMP DP  RH WIND       PRES   REMARKS
MEMPHIS INTL   PTSUNNY   80  54  40 SE8       30.26F
NWS MEMPHIS      N/A     78 N/A N/A MISG        N/A
JACKSON        MOSUNNY   79  53  40 VRB7      30.30F
DYERSBURG      MOSUNNY   79  48  34 SE8       30.29F
PARIS          SUNNY     73  54  49 SE10      30.31F
LEXINGTON      SUNNY     77  54  44 S7        30.30F
$$

TNZ008-025-027-028-033-062-065-066-231900-
NORTH MIDDLE TENNESSEE

CITY           SKY/WX    TMP DP  RH WIND       PRES   REMARKS
NASHVILLE      PTSUNNY   79  49  34 SE9       30.33F
CLARKSVILLE    CLOUDY    75  49  39 S6        30.32F
SMYRNA         MOSUNNY   78  55  44 SW10      30.33F
COOKEVILLE     PTSUNNY   79  57  47 SW7       30.34F
CROSSVILLE     MOSUNNY   74  51  44 S10       30.39F
$$

TNZ061-075-076-078-094-096-097-231900-
SOUTH MIDDLE TENNESSEE

CITY           SKY/WX    TMP DP  RH WIND       PRES   REMARKS
FAYETTEVILLE   SUNNY    N/A N/A N/A MISG      30.33F
TULLAHOMA      MOSUNNY   77  54  44 CALM      30.35F
WINCHESTER     SUNNY     79  55  44 S8        30.35S
MCMINNVILLE    SUNNY     81  54  39 SW7       30.34F
COLUMBIA       SUNNY     81  57  44 S6        30.30F
SHELBYVILLE    SUNNY     81  59  47 VRB6      30.34F
$$

TNZ017-018-042-046-047-231900-
NORTHEAST TENNESSEE

CITY           SKY/WX    TMP DP  RH WIND       PRES   REMARKS
TRI CITIES     MOSUNNY   77  44  30 S8        30.39F
ELIZABETHTON   CLEAR     75  45  33 VRB6      30.39F
$$

TNZ012-013-036-069-073-074-231900-
CENTRAL EAST TENNESSEE

CITY           SKY/WX    TMP DP  RH WIND       PRES   REMARKS
KNOXVILLE      NOT AVBL
OAK RIDGE      SUNNY     80  51  36 CALM      30.38F
GATLINBURG     CLEAR     75  50  41 E5        30.37F
MORRISTOWN     CLEAR     77  50  38 NW3       30.39F
$$

TNZ083-085-099-231900-
SOUTHEAST TENNESSEE

CITY           SKY/WX    TMP DP  RH WIND       PRES   REMARKS
CHATTANOOGA    MOSUNNY   79  53  40 S8        30.35F
$$

SKY/WX REPORTED AS FAIR MEANS FEW OR NO CLOUDS BELOW
12 THOUSAND FEET.




USA.gov is the U.S. government's official web portal to all federal, state and local government web resources and services.